Society Hill, SC

7:32 PM EDT on August 30, 2016 (GMT -0400)
Darlington County Jetport

Weather History for KUDG - July, 2013

Change the Weather History Date:

Friday, July 19, 2013

  Actual Average (KFLO) Record (KFLO)
Temperature  
Mean Temperature 82 °F 81 °F  
Max Temperature 91 °F 91 °F 103 °F (1986)
Min Temperature 73 °F 72 °F 61 °F (1987)
Degree Days  
Heating Degree Days 0 0  
Month to date heating degree days 0  
Since 1 June heating degree days 1  
Since 1 July heating degree days 0  
Cooling Degree Days 17 16  
Month to date cooling degree days 304  
Year to date cooling degree days 1008  
Since 1 June cooling degree days 701  
Growing Degree Days 32 (Base 50)    
Moisture  
Dew Point 71 °F    
Average Humidity 71    
Maximum Humidity 89    
Minimum Humidity 49    
Precipitation  
Precipitation 0.15 in 0.18 in 1.57 in (1965)
Month to date precipitation 3.10  
Year to date precipitation 23.08  
Sea Level Pressure  
Sea Level Pressure 30.10 in    
Wind  
Wind Speed 6 mph (SSW)    
Max Wind Speed 20 mph    
Max Gust Speed 24 mph    
Visibility 10 miles    
Events      
T = Trace of Precipitation, MM = Missing Value Source: NWS Daily Summary

Daily Weather History Graph

Daily Weather History Graph

Search for Another Location

Airport or City:

Trip Planner

Search our weather history database for the weather conditions in past years. The results will help you decide how hot, cold, wet, or windy it might be!

Date:

Astronomy

Jul. 19, 2013 Rise Set
Actual Time 6:21 AM EDT 8:30 PM EDT
Civil Twilight 5:52 AM EDT 8:58 PM EDT
Nautical Twilight 5:17 AM EDT 9:33 PM EDT
Astronomical Twilight 4:40 AM EDT 10:10 PM EDT
Moon 5:31 PM EDT (7/19) 2:59 AM EDT (7/19)
Length of Visible Light 15h 06m
Length of Day
14h 09m
Waxing Gibbous, 86% of the Moon is Illuminated
Jul 19
Waxing Gibbous
Jul 22
Full
Jul 29
Last Quarter
Aug 6
New
Aug 14
First Quarter

Hourly Weather History & Observations

Time (EDT) Temp. Heat Index Dew Point Humidity Pressure Visibility Wind Dir Wind Speed Gust Speed Precip Events Conditions
12:15 AM 78.8 °F - 71.6 °F 78% 30.15 in 10.0 mi South 3.5 mph - N/A   Clear
12:35 AM 78.8 °F - 71.6 °F 78% 30.15 in 10.0 mi South 4.6 mph - N/A   Clear
12:55 AM 78.8 °F - 71.6 °F 78% 30.14 in 10.0 mi South 5.8 mph - N/A   Clear
1:15 AM 78.8 °F - 71.6 °F 78% 30.14 in 10.0 mi Calm Calm - N/A   Clear
1:35 AM 77.0 °F - 71.6 °F 83% 30.13 in 10.0 mi South 4.6 mph - N/A   Clear
1:55 AM 77.0 °F - 71.6 °F 83% 30.13 in 10.0 mi SW 4.6 mph - N/A   Clear
2:15 AM 75.2 °F - 71.6 °F 89% 30.13 in 8.0 mi SSW 4.6 mph - N/A   Clear
2:35 AM 77.0 °F - 71.6 °F 83% 30.13 in 8.0 mi SSW 4.6 mph - N/A   Clear
2:55 AM 75.2 °F - 71.6 °F 89% 30.12 in 10.0 mi SSW 6.9 mph - N/A   Clear
3:15 AM 77.0 °F - 71.6 °F 83% 30.11 in 10.0 mi SSW 5.8 mph - N/A   Clear
3:35 AM 75.2 °F - 71.6 °F 89% 30.11 in 10.0 mi SW 5.8 mph - N/A   Clear
3:55 AM 75.2 °F - 71.6 °F 89% 30.11 in 10.0 mi SSW 5.8 mph - N/A   Clear
4:15 AM 75.2 °F - 69.8 °F 83% 30.11 in 10.0 mi SSW 6.9 mph - N/A   Clear
4:35 AM 75.2 °F - 69.8 °F 83% 30.11 in 10.0 mi SW 5.8 mph - N/A   Clear
4:55 AM 75.2 °F - 69.8 °F 83% 30.12 in 10.0 mi SW 4.6 mph - N/A   Clear
5:15 AM 75.2 °F - 69.8 °F 83% 30.11 in 10.0 mi SSW 6.9 mph - N/A   Clear
5:35 AM 75.2 °F - 69.8 °F 83% 30.12 in 10.0 mi SSW 6.9 mph - N/A   Clear
5:55 AM 75.2 °F - 69.8 °F 83% 30.12 in 10.0 mi SSW 5.8 mph - N/A   Clear
6:15 AM 75.2 °F - 69.8 °F 83% 30.12 in 10.0 mi SSW 3.5 mph - N/A   Clear
6:35 AM 73.4 °F - 69.8 °F 88% 30.12 in 8.0 mi South 4.6 mph - N/A   Clear
6:55 AM 73.4 °F - 69.8 °F 88% 30.13 in 8.0 mi SSW 3.5 mph - N/A   Clear
7:15 AM 75.2 °F - 69.8 °F 83% 30.13 in 10.0 mi South 4.6 mph - N/A   Clear
7:35 AM 75.2 °F - 69.8 °F 83% 30.13 in 10.0 mi SSW 5.8 mph - N/A   Clear
7:55 AM 77.0 °F - 71.6 °F 83% 30.14 in 10.0 mi SSW 5.8 mph - N/A   Clear
8:15 AM 78.8 °F - 71.6 °F 78% 30.15 in 10.0 mi SSW 5.8 mph - N/A   Clear
8:35 AM 78.8 °F - 71.6 °F 78% 30.15 in 10.0 mi SSW 6.9 mph - N/A   Partly Cloudy
8:55 AM 80.6 °F 84.6 °F 71.6 °F 74% 30.16 in 10.0 mi SW 8.1 mph - N/A   Scattered Clouds
9:15 AM 80.6 °F 84.6 °F 71.6 °F 74% 30.16 in 10.0 mi SW 10.4 mph 16.1 mph N/A   Scattered Clouds
9:35 AM 80.6 °F 84.6 °F 71.6 °F 74% 30.16 in 10.0 mi SSW 12.7 mph - N/A   Partly Cloudy
9:55 AM 82.4 °F 87.2 °F 71.6 °F 70% 30.16 in 10.0 mi SW 9.2 mph 17.3 mph N/A   Scattered Clouds
10:15 AM 82.4 °F 87.2 °F 71.6 °F 70% 30.16 in 10.0 mi SSW 10.4 mph - N/A   Mostly Cloudy
10:35 AM 82.4 °F 87.2 °F 71.6 °F 70% 30.16 in 10.0 mi WSW 9.2 mph - N/A   Scattered Clouds
10:55 AM 84.2 °F 89.6 °F 71.6 °F 66% 30.16 in 10.0 mi SW 9.2 mph - N/A   Scattered Clouds
11:15 AM 84.2 °F 88.4 °F 69.8 °F 62% 30.16 in 10.0 mi SW 5.8 mph - N/A   Partly Cloudy
11:35 AM 86.0 °F 91.8 °F 71.6 °F 62% 30.15 in 10.0 mi SSW 4.6 mph - N/A   Clear
11:55 AM 86.0 °F 90.4 °F 69.8 °F 58% 30.15 in 10.0 mi South 10.4 mph - N/A   Clear
12:15 PM 86.0 °F 90.4 °F 69.8 °F 58% 30.15 in 10.0 mi SW 6.9 mph - N/A   Partly Cloudy
12:35 PM 87.8 °F 92.6 °F 69.8 °F 55% 30.14 in 10.0 mi South 9.2 mph - N/A   Partly Cloudy
12:55 PM 87.8 °F 92.6 °F 69.8 °F 55% 30.14 in 8.0 mi SSW 6.9 mph - N/A   Partly Cloudy
1:15 PM 89.6 °F 93.4 °F 68.0 °F 49% 30.13 in 10.0 mi South 9.2 mph - N/A   Clear
1:35 PM 89.6 °F 94.7 °F 69.8 °F 52% 30.12 in 10.0 mi SSW 6.9 mph - N/A   Clear
1:55 PM 89.6 °F 94.7 °F 69.8 °F 52% 30.11 in 10.0 mi South 5.8 mph - N/A   Partly Cloudy
2:15 PM 89.6 °F 94.7 °F 69.8 °F 52% 30.10 in 10.0 mi Calm Calm - N/A   Scattered Clouds
2:35 PM 89.6 °F 94.7 °F 69.8 °F 52% 30.09 in 10.0 mi SSE 4.6 mph - N/A   Partly Cloudy
2:55 PM 91.4 °F 96.8 °F 69.8 °F 49% 30.09 in 10.0 mi South 8.1 mph - N/A   Partly Cloudy
3:15 PM 91.4 °F 96.8 °F 69.8 °F 49% 30.09 in 10.0 mi South 5.8 mph - N/A   Partly Cloudy
3:35 PM 91.4 °F 96.8 °F 69.8 °F 49% 30.08 in 10.0 mi SW 3.5 mph - N/A   Clear
3:55 PM 91.4 °F 96.8 °F 69.8 °F 49% 30.07 in 10.0 mi South 6.9 mph - N/A   Scattered Clouds
4:15 PM 91.4 °F 96.8 °F 69.8 °F 49% 30.07 in 10.0 mi SSW 8.1 mph - N/A   Partly Cloudy
4:35 PM 91.4 °F 98.4 °F 71.6 °F 52% 30.06 in 10.0 mi South 5.8 mph - N/A   Mostly Cloudy
4:55 PM 89.6 °F 96.2 °F 71.6 °F 55% 30.06 in 10.0 mi South 9.2 mph - N/A   Mostly Cloudy
5:15 PM 87.8 °F 93.8 °F 71.6 °F 58% 30.06 in 10.0 mi SE 11.5 mph 16.1 mph N/A   Mostly Cloudy
5:35 PM 87.8 °F 93.8 °F 71.6 °F 58% 30.05 in 10.0 mi SE 8.1 mph - N/A   Scattered Clouds
5:55 PM 86.0 °F 93.4 °F 73.4 °F 66% 30.05 in 10.0 mi South 19.6 mph 24.2 mph N/A   Partly Cloudy
6:15 PM 84.2 °F 89.6 °F 71.6 °F 66% 30.04 in 5.0 mi South 6.9 mph - 0.14 in   Mostly Cloudy
6:35 PM 84.2 °F 92.3 °F 75.2 °F 74% 30.03 in 10.0 mi East 4.6 mph - 0.15 in   Mostly Cloudy
6:55 PM 86.0 °F 95.1 °F 75.2 °F 70% 30.02 in 10.0 mi SE 5.8 mph - 0.15 in   Clear
7:15 PM 86.0 °F 93.4 °F 73.4 °F 66% 30.02 in 10.0 mi SSE 4.6 mph - N/A   Clear
7:35 PM 86.0 °F 95.1 °F 75.2 °F 70% 30.03 in 10.0 mi South 4.6 mph - N/A   Clear
7:55 PM 84.2 °F 90.9 °F 73.4 °F 70% 30.03 in 10.0 mi SSE 4.6 mph - N/A   Clear
8:15 PM 84.2 °F 90.9 °F 73.4 °F 70% 30.03 in 10.0 mi SSE 5.8 mph - N/A   Clear
8:35 PM 82.4 °F 88.2 °F 73.4 °F 74% 30.04 in 10.0 mi South 5.8 mph - N/A   Clear
8:55 PM 82.4 °F 88.2 °F 73.4 °F 74% 30.05 in 10.0 mi SSE 6.9 mph - N/A   Clear
9:15 PM 80.6 °F 84.6 °F 71.6 °F 74% 30.05 in 10.0 mi South 6.9 mph - N/A   Clear
9:35 PM 80.6 °F 84.6 °F 71.6 °F 74% 30.05 in 10.0 mi South 6.9 mph - N/A   Partly Cloudy
9:55 PM 80.6 °F 84.6 °F 71.6 °F 74% 30.05 in 10.0 mi South 5.8 mph - N/A   Clear
10:15 PM 80.6 °F 84.6 °F 71.6 °F 74% 30.07 in 10.0 mi South 9.2 mph - N/A   Clear
10:35 PM 80.6 °F 84.6 °F 71.6 °F 74% 30.07 in 10.0 mi South 8.1 mph - N/A   Clear
10:55 PM 80.6 °F 84.6 °F 71.6 °F 74% 30.08 in 10.0 mi SW 5.8 mph - N/A   Clear
11:15 PM 78.8 °F - 71.6 °F 78% 30.09 in 10.0 mi SSW 8.1 mph - N/A   Clear
11:35 PM 78.8 °F - 69.8 °F 74% 30.09 in 10.0 mi SSW 6.9 mph - N/A   Clear
11:55 PM 78.8 °F - 71.6 °F 78% 30.09 in 10.0 mi SSW 11.5 mph - N/A   Clear